TimeCDT,TemperatureF,Dew PointF,Humidity,Sea Level PressureIn,VisibilityMPH,Wind Direction,Wind SpeedMPH,Gust SpeedMPH,PrecipitationIn,Events,Conditions,WindDirDegrees,DateUTC
12:15 AM,36.1,35.4,97,30.32,10.0,Calm,Calm,-,N/A,,Clear,0,2013-09-16 05:15:00
12:35 AM,36.0,35.8,99,30.32,2.5,Calm,Calm,-,N/A,,Clear,0,2013-09-16 05:35:00
12:55 AM,34.2,34.2,100,30.33,1.0,Calm,Calm,-,N/A,,Mist,0,2013-09-16 05:55:00
1:15 AM,33.8,33.6,99,30.34,1.5,Calm,Calm,-,N/A,,Mist,0,2013-09-16 06:15:00
1:35 AM,33.3,32.7,98,30.34,10.0,Calm,Calm,-,N/A,,Clear,0,2013-09-16 06:35:00
1:55 AM,33.8,33.1,97,30.34,5.0,Calm,Calm,-,N/A,,Clear,0,2013-09-16 06:55:00
2:15 AM,32.0,31.6,99,30.34,7.0,Calm,Calm,-,N/A,,Clear,0,2013-09-16 07:15:00
2:35 AM,31.6,31.3,99,30.35,10.0,Calm,Calm,-,N/A,,Clear,0,2013-09-16 07:35:00
2:55 AM,32.0,31.6,99,30.35,10.0,Calm,Calm,-,N/A,,Clear,0,2013-09-16 07:55:00
3:15 AM,31.5,31.1,99,30.35,7.0,Calm,Calm,-,N/A,,Clear,0,2013-09-16 08:15:00
3:35 AM,32.0,31.6,99,30.36,7.0,Calm,Calm,-,N/A,,Clear,0,2013-09-16 08:35:00
3:55 AM,30.7,30.0,97,30.37,10.0,Calm,Calm,-,N/A,,Clear,0,2013-09-16 08:55:00
4:15 AM,31.1,31.1,100,30.37,0.2,Calm,Calm,-,N/A,Fog,Light Freezing Fog,0,2013-09-16 09:15:00
4:35 AM,29.3,29.1,99,30.37,10.0,Calm,Calm,-,N/A,,Clear,0,2013-09-16 09:35:00
4:55 AM,30.6,30.4,99,30.37,2.0,Calm,Calm,-,N/A,,Clear,0,2013-09-16 09:55:00
5:15 AM,30.2,30.2,100,30.38,2.5,Calm,Calm,-,N/A,,Clear,0,2013-09-16 10:15:00
5:35 AM,30.2,30.2,100,30.39,1.8,Calm,Calm,-,N/A,,Mist,0,2013-09-16 10:35:00
5:55 AM,29.5,29.3,99,30.39,10.0,Calm,Calm,-,N/A,,Clear,0,2013-09-16 10:55:00
6:15 AM,30.0,29.7,99,30.39,10.0,Calm,Calm,-,N/A,,Clear,0,2013-09-16 11:15:00
6:35 AM,29.5,28.9,98,30.40,10.0,Calm,Calm,-,N/A,,Clear,0,2013-09-16 11:35:00
6:55 AM,30.0,28.9,96,30.41,10.0,Calm,Calm,-,N/A,,Clear,0,2013-09-16 11:55:00
7:15 AM,30.2,29.7,98,30.41,10.0,Calm,Calm,-,N/A,,Clear,0,2013-09-16 12:15:00
7:35 AM,32.2,32.0,99,30.41,10.0,Calm,Calm,-,N/A,,Clear,0,2013-09-16 12:35:00
7:55 AM,34.2,33.4,97,30.42,10.0,Calm,Calm,-,N/A,,Clear,0,2013-09-16 12:55:00
8:15 AM,36.7,35.6,96,30.42,10.0,Calm,Calm,-,N/A,,Clear,0,2013-09-16 13:15:00
8:35 AM,39.2,37.6,94,30.42,10.0,Calm,Calm,-,N/A,,Clear,0,2013-09-16 13:35:00
8:55 AM,41.4,38.5,89,30.43,10.0,Calm,Calm,-,N/A,,Clear,0,2013-09-16 13:55:00
9:15 AM,43.9,40.3,87,30.44,10.0,Calm,Calm,-,N/A,,Clear,0,2013-09-16 14:15:00
9:35 AM,47.1,41.2,80,30.44,10.0,Calm,Calm,-,N/A,,Clear,0,2013-09-16 14:35:00
9:55 AM,48.9,40.6,73,30.44,10.0,Calm,Calm,-,N/A,,Clear,0,2013-09-16 14:55:00
10:15 AM,50.7,40.6,68,30.44,10.0,East,4.6,-,N/A,,Scattered Clouds,80,2013-09-16 15:15:00
10:35 AM,51.8,40.3,65,30.44,10.0,Calm,Calm,-,N/A,,Scattered Clouds,0,2013-09-16 15:35:00
10:55 AM,52.3,40.5,64,30.44,10.0,SE,8.1,-,N/A,,Scattered Clouds,140,2013-09-16 15:55:00
11:15 AM,52.5,39.9,62,30.44,10.0,Calm,Calm,-,N/A,,Scattered Clouds,0,2013-09-16 16:15:00
11:35 AM,53.4,38.8,58,30.43,10.0,ENE,3.5,-,N/A,,Clear,70,2013-09-16 16:35:00
11:55 AM,54.7,40.1,58,30.42,10.0,ESE,5.8,-,N/A,,Clear,120,2013-09-16 16:55:00
12:15 PM,55.8,39.6,55,30.42,10.0,Calm,Calm,-,N/A,,Clear,0,2013-09-16 17:15:00
12:35 PM,56.5,39.2,52,30.42,10.0,Calm,Calm,-,N/A,,Clear,0,2013-09-16 17:35:00
12:55 PM,57.4,39.9,52,30.42,10.0,ESE,4.6,-,N/A,,Clear,110,2013-09-16 17:55:00
1:15 PM,57.7,37.4,47,30.41,10.0,Calm,Calm,-,N/A,,Clear,0,2013-09-16 18:15:00
1:35 PM,58.5,36.5,44,30.40,10.0,ENE,3.5,-,N/A,,Clear,70,2013-09-16 18:35:00
1:55 PM,58.6,36.9,44,30.40,10.0,Calm,Calm,-,N/A,,Clear,0,2013-09-16 18:55:00
2:15 PM,59.0,36.7,43,30.39,10.0,South,4.6,-,N/A,,Clear,170,2013-09-16 19:15:00
2:35 PM,59.9,37.4,43,30.39,10.0,South,4.6,-,N/A,,Clear,170,2013-09-16 19:35:00
2:55 PM,60.6,37.6,42,30.38,10.0,Calm,Calm,-,N/A,,Clear,0,2013-09-16 19:55:00
3:15 PM,61.7,39.0,43,30.38,10.0,Calm,Calm,-,N/A,,Clear,0,2013-09-16 20:15:00
3:35 PM,61.3,38.7,43,30.37,10.0,SSE,3.5,-,N/A,,Clear,150,2013-09-16 20:35:00
3:55 PM,60.8,38.7,44,30.37,10.0,Calm,Calm,-,N/A,,Clear,0,2013-09-16 20:55:00
4:15 PM,61.3,38.1,42,30.36,10.0,Calm,Calm,-,N/A,,Clear,0,2013-09-16 21:15:00
4:35 PM,61.0,39.2,45,30.36,10.0,Calm,Calm,-,N/A,,Clear,0,2013-09-16 21:35:00
4:55 PM,61.2,40.6,47,30.35,10.0,Calm,Calm,-,N/A,,Clear,0,2013-09-16 21:55:00
5:15 PM,60.8,39.6,46,30.35,10.0,Calm,Calm,-,N/A,,Clear,0,2013-09-16 22:15:00
5:35 PM,59.9,40.3,48,30.34,10.0,South,4.6,-,N/A,,Clear,190,2013-09-16 22:35:00
5:55 PM,59.5,40.3,49,30.34,10.0,South,4.6,-,N/A,,Clear,190,2013-09-16 22:55:00
6:15 PM,58.3,40.8,52,30.34,10.0,Calm,Calm,-,N/A,,Clear,0,2013-09-16 23:15:00
6:35 PM,57.4,40.8,54,30.34,10.0,Calm,Calm,-,N/A,,Clear,0,2013-09-16 23:35:00
6:55 PM,56.3,40.1,55,30.33,10.0,South,3.5,-,N/A,,Clear,170,2013-09-16 23:55:00
7:15 PM,54.0,41.0,62,30.33,10.0,Calm,Calm,-,N/A,,Clear,0,2013-09-17 00:15:00
7:35 PM,50.0,42.8,76,30.33,10.0,Calm,Calm,-,N/A,,Clear,0,2013-09-17 00:35:00
7:55 PM,47.1,42.1,83,30.34,10.0,Calm,Calm,-,N/A,,Clear,0,2013-09-17 00:55:00
8:15 PM,45.5,42.4,89,30.34,10.0,Calm,Calm,-,N/A,,Clear,0,2013-09-17 01:15:00
8:35 PM,44.6,41.4,88,30.34,10.0,Calm,Calm,-,N/A,,Clear,0,2013-09-17 01:35:00
8:55 PM,44.8,41.9,90,30.34,10.0,Calm,Calm,-,N/A,,Clear,0,2013-09-17 01:55:00
9:15 PM,42.6,39.9,90,30.34,10.0,Calm,Calm,-,N/A,,Clear,0,2013-09-17 02:15:00
9:35 PM,41.9,39.0,90,30.34,10.0,Calm,Calm,-,N/A,,Clear,0,2013-09-17 02:35:00
9:55 PM,42.4,39.7,90,30.34,10.0,Calm,Calm,-,N/A,,Clear,0,2013-09-17 02:55:00
10:15 PM,41.9,38.7,88,30.34,10.0,SE,3.5,-,N/A,,Clear,140,2013-09-17 03:15:00
10:35 PM,43.9,39.7,85,30.34,10.0,SSE,3.5,-,N/A,,Clear,150,2013-09-17 03:35:00
10:55 PM,42.8,39.4,88,30.35,10.0,Calm,Calm,-,N/A,,Clear,0,2013-09-17 03:55:00
11:15 PM,41.2,38.7,91,30.35,10.0,Calm,Calm,-,N/A,,Clear,0,2013-09-17 04:15:00
11:35 PM,37.2,35.1,92,30.35,10.0,Calm,Calm,-,N/A,,Clear,0,2013-09-17 04:35:00
11:55 PM,39.4,38.1,95,30.35,10.0,Calm,Calm,-,N/A,,Clear,0,2013-09-17 04:55:00